[[{"header":{"parameterUnit":"m.s-1","parameterCategory":1,"la1":30.2991,"la2":30.254,"lo1":-89.0895,"lo2":-89.0444,"dy":0.0017,"dx":0.0017,"nx":28,"ny":28,"refTime":"2025-06-17T03:00:00:Z","depth":0,"parameterNumber":2,"parameterNumberName":"U-component_of_WINDS"},"data":[0,0,0,0,0,0,0,0,0,0,0,0,0,0,0,0,0,0,0,0,0,0,0,0,0,0,0,0,0,0,0,0,0,0,0,0,0,0,0,0,0,0,0,0,0,0,0,0,0,0,0,0,0,0,0,0,0,0,0.5932,0.5933,0,0.6028,0.6029,0.603,0.6091,0.6092,0.6092,0.6093,0.6193,0.6195,0.6197,0,0,0,0,0,0,0,0,0,0,0,0,0,0.5807,0.5809,0.5932,0.5933,0.5935,0.6027,0.6029,0.603,0.6091,0.6092,0.6092,0.6093,0.6192,0.6195,0.6198,0,0,0,0,0,0,0,0,0,0,0,0,0,0.5878,0.581,0.5932,0.5976,0.5981,0.6027,0.6029,0.603,0.6091,0.6092,0.6092,0.6093,0.6191,0.6195,0.6198,0.6208,0,0,0.6209,0.621,0,0,0,0,0,0,0,0,0.5874,0.5882,0.5969,0.5973,0.5979,0.6048,0.6022,0.609,0.6091,0.605,0.6093,0.6093,0.6145,0.6152,0.6169,0.6213,0.6217,0.6209,0.6211,0.6213,0.6214,0,0,0,0,0,0,0,0.5869,0.5879,0.597,0.597,0.5976,0.5993,0.6003,0.6035,0.6093,0.6053,0.6058,0.6068,0.6147,0.6165,0.6171,0.6219,0.6209,0.6212,0.6214,0.6216,0.6279,0.6278,0,0,0,0,0,0,0.5856,0.5874,0.5967,0.5973,0.5926,0.5994,0.6006,0.6025,0.6093,0.6103,0.6068,0.6071,0.6159,0.6167,0.6175,0.6193,0.6213,0.6216,0.6218,0.6279,0.6279,0.6278,0,0,0,0,0,0,0.5853,0.5864,0.5963,0.5925,0.5939,0.5996,0.6017,0.6027,0.6045,0.6103,0.6114,0.6075,0.616,0.617,0.62,0.6197,0.6217,0.6221,0.628,0.6279,0.6278,0.6227,0,0,0,0,0,0,0.5849,0.5863,0.5866,0.5924,0.594,0.5985,0.6017,0.6028,0.605,0.6055,0.6113,0.6123,0.6161,0.6194,0.6203,0.6202,0.6223,0.628,0.6279,0.6279,0.6229,0.6224,0.622,0,0,0,0,0,0.5845,0.5848,0.5866,0.5877,0.5946,0.5984,0.5994,0.6036,0.605,0.6054,0.6093,0.6121,0.6196,0.6197,0.6208,0.6207,0.628,0.628,0.6279,0.6231,0.6225,0.622,0,0,0,0,0,0,0.5788,0.5856,0.5877,0.5898,0.5935,0.5995,0.6002,0.6029,0.6063,0.6066,0.6119,0.6131,0.6156,0.6185,0.6185,0.6222,0.6242,0.6243,0.6202,0.6197,0.6193,0.6185,0.6226,0,0,0,0,0,0.5777,0.5802,0.5861,0.5875,0.5892,0.5943,0.5962,0.5992,0.6032,0.6048,0.6089,0.6127,0.616,0.618,0.6213,0.6234,0.6248,0.6239,0.6235,0.6231,0.6231,0.6246,0.6243,0.6275,0.6275,0.6275,0,0,0.5757,0.5797,0.581,0.5864,0.5896,0.5922,0.5956,0.5981,0.6001,0.6052,0.6083,0.6114,0.6161,0.6186,0.62,0.6211,0.6226,0.623,0.6226,0.6229,0.6244,0.6241,0.6238,0.6274,0.6275,0.6275,0,0,0.5732,0.5765,0.578,0.5812,0.586,0.5894,0.5898,0.5954,0.5976,0.6008,0.6047,0.6072,0.6127,0.6159,0.6183,0.6173,0.6201,0.6182,0.616,0.6173,0.6171,0.6169,0.6166,0.6164,0.6182,0.6182,0.6182,0,0.57,0.5739,0.5785,0.5808,0.5832,0.5879,0.5896,0.5925,0.5981,0.5997,0.6009,0.6079,0.6114,0.6149,0.6146,0.6164,0.6171,0.6175,0.6167,0.6166,0.6165,0.6162,0.6161,0.618,0.618,0.618,0.618,0,0.5699,0.5725,0.5732,0.5785,0.581,0.583,0.5879,0.5899,0.5927,0.5961,0.5994,0.6038,0.6081,0.6092,0.6119,0.613,0.6136,0.6157,0.6178,0.6158,0.6157,0.6156,0.6176,0.6177,0.6178,0.6178,0,0,0.5639,0.5718,0.5719,0.5745,0.5802,0.5824,0.5848,0.589,0.5906,0.5944,0.5965,0.6011,0.6032,0.6058,0.6091,0.6103,0.6093,0.6123,0.6125,0.6116,0.6109,0.6092,0.609,0.6112,0.6112,0.6113,0.6105,0,0.5623,0.5665,0.5708,0.5736,0.5762,0.5808,0.5829,0.5867,0.59,0.5928,0.5965,0.5997,0.6021,0.6038,0.6051,0.6091,0.6092,0.6092,0.6134,0.6135,0.612,0.609,0.6072,0.6063,0.6105,0.6105,0.6105,0,0.5609,0.5644,0.5675,0.5731,0.5744,0.5761,0.5804,0.583,0.5875,0.5899,0.5929,0.5964,0.5992,0.6011,0.6052,0.605,0.6071,0.6093,0.6094,0.6099,0.6118,0.6094,0.6061,0.6059,0.6104,0.6104,0.6104,0,0.5562,0.5618,0.5644,0.5664,0.5731,0.5742,0.577,0.5816,0.5839,0.5877,0.5893,0.5934,0.5957,0.5988,0.6034,0.6043,0.607,0.6092,0.6091,0.609,0.6094,0.6093,0.6063,0.6107,0.6107,0.6107,0.6107,0,0.5539,0.5556,0.5624,0.564,0.5661,0.5711,0.5731,0.5763,0.5804,0.5828,0.5872,0.5894,0.5952,0.5982,0.6018,0.6047,0.6057,0.6077,0.6086,0.6073,0.607,0.6086,0.6088,0.6107,0.6107,0.6107,0.6107,0,0.549,0.5536,0.5568,0.5628,0.5644,0.5657,0.571,0.5728,0.5764,0.5794,0.5804,0.5861,0.5898,0.5947,0.5999,0.6024,0.6048,0.6063,0.6032,0.6038,0.6034,0.6033,0.6013,0.6013,0.6056,0.6056,0.6056,0,0.5472,0.5486,0.5549,0.5568,0.5595,0.5625,0.5649,0.57,0.5723,0.5777,0.5788,0.5829,0.5864,0.5921,0.5968,0.6009,0.6025,0.6015,0.6031,0.6018,0.6025,0.6023,0.6026,0.6011,0.601,0.6009,0.6009,0,0.5435,0.5458,0.549,0.5531,0.5559,0.5593,0.563,0.5644,0.5703,0.5727,0.5765,0.5792,0.5846,0.5886,0.5934,0.5965,0.5997,0.6004,0.6005,0.5991,0.5973,0.5983,0.6021,0.6003,0.6004,0.6004,0.6005,0.6005,0.5402,0.5417,0.5463,0.5499,0.5532,0.5566,0.5586,0.5625,0.5657,0.5705,0.5734,0.5771,0.5818,0.5885,0.5915,0.5946,0.5958,0.5961,0.5962,0.5961,0.5957,0.5969,0.5955,0.5955,0.5955,0.5956,0.5956,0,0.5367,0.54,0.5432,0.5482,0.551,0.5538,0.5581,0.5603,0.5635,0.5676,0.571,0.5755,0.5795,0.5845,0.5889,0.5904,0.592,0.5913,0.5913,0.5919,0.5944,0.5937,0.59,0.59,0.59,0.59,0.59,0.59,0.5352,0.538,0.5408,0.5453,0.5487,0.5523,0.5545,0.5578,0.5611,0.5659,0.5692,0.5724,0.577,0.5818,0.5856,0.587,0.5884,0.5873,0.5891,0.5913,0.5918,0.5922,0.5917,0.5876,0.5876,0.5865,0.5865,0.5865]},{"header":{"parameterUnit":"m.s-1","parameterCategory":1,"la1":30.2991,"la2":30.254,"lo1":-89.0895,"lo2":-89.0444,"dy":0.0017,"dx":0.0017,"nx":28,"ny":28,"refTime":"2025-06-17T03:00:00:Z","depth":0,"parameterNumber":3,"parameterNumberName":"V-component_of_WINDS"},"data":[0,0,0,0,0,0,0,0,0,0,0,0,0,0,0,0,0,0,0,0,0,0,0,0,0,0,0,0,0,0,0,0,0,0,0,0,0,0,0,0,0,0,0,0,0,0,0,0,0,0,0,0,0,0,0,0,0,0,4.2591,4.2594,0,4.2839,4.2842,4.2844,4.2956,4.2955,4.2955,4.2955,4.3203,4.3209,4.3216,0,0,0,0,0,0,0,0,0,0,0,0,0,4.221,4.2216,4.2591,4.2594,4.2597,4.2838,4.2842,4.2845,4.2956,4.2955,4.2955,4.2955,4.32,4.3209,4.3217,0,0,0,0,0,0,0,0,0,0,0,0,0,4.2408,4.2218,4.259,4.2681,4.2692,4.2838,4.2842,4.2846,4.2956,4.2955,4.2955,4.2954,4.3198,4.3208,4.3218,4.329,0,0,4.3249,4.3254,0,0,0,0,0,0,0,0,4.2396,4.2422,4.2665,4.2675,4.2688,4.2866,4.2798,4.2994,4.2956,4.2855,4.2955,4.2954,4.3091,4.311,4.3157,4.3301,4.3312,4.325,4.3256,4.3261,4.3264,0,0,0,0,0,0,0,4.2382,4.2412,4.2689,4.2668,4.2682,4.2709,4.2736,4.2836,4.2972,4.2864,4.2873,4.2901,4.3097,4.3147,4.3163,4.3316,4.325,4.3259,4.3265,4.3269,4.3534,4.3534,0,0,0,0,0,0,4.2354,4.2399,4.2681,4.2696,4.2538,4.2716,4.2747,4.2809,4.2971,4.2996,4.2901,4.2905,4.3129,4.3151,4.3173,4.3269,4.3261,4.327,4.3276,4.3533,4.3534,4.3535,0,0,0,0,0,0,4.2346,4.2379,4.2671,4.255,4.259,4.2723,4.2792,4.2814,4.2864,4.2999,4.3024,4.2927,4.313,4.3158,4.3261,4.3279,4.3275,4.3284,4.3532,4.3533,4.3534,4.3461,0,0,0,0,0,0,4.2334,4.2375,4.2404,4.255,4.2596,4.2756,4.2793,4.2819,4.2883,4.289,4.3031,4.3053,4.3132,4.3245,4.3271,4.3293,4.3292,4.3531,4.3532,4.3534,4.3463,4.346,4.3458,0,0,0,0,0,4.232,4.2372,4.2405,4.2438,4.2635,4.2757,4.2782,4.2873,4.2883,4.2914,4.3001,4.3049,4.3273,4.3254,4.3285,4.331,4.353,4.3532,4.3534,4.3464,4.3461,4.3458,0,0,0,0,0,0,4.2222,4.2393,4.2431,4.2532,4.2629,4.2775,4.2816,4.2866,4.2961,4.2964,4.3071,4.3102,4.3195,4.3263,4.3239,4.339,4.3406,4.3414,4.3342,4.334,4.3338,4.332,4.3301,0,0,0,0,0,4.2212,4.2298,4.2442,4.2517,4.2564,4.2681,4.2737,4.2799,4.2904,4.2945,4.3039,4.3137,4.323,4.3289,4.3381,4.3473,4.3506,4.3506,4.3503,4.35,4.3506,4.3562,4.3564,4.3541,4.3541,4.3541,0,0,4.2192,4.2297,4.2344,4.25,4.2582,4.2668,4.2715,4.2803,4.2867,4.2957,4.3061,4.3134,4.325,4.3348,4.3396,4.3407,4.352,4.3503,4.35,4.3507,4.3564,4.3566,4.3568,4.3542,4.3542,4.3542,0,0,4.2201,4.2288,4.2361,4.2444,4.2569,4.2648,4.2665,4.2804,4.2857,4.2963,4.3033,4.311,4.3267,4.3348,4.341,4.3451,4.3499,4.3478,4.3464,4.3517,4.3519,4.3521,4.3537,4.3541,4.3483,4.3483,4.3483,0,4.216,4.2293,4.2391,4.2477,4.2544,4.2632,4.2707,4.2781,4.2929,4.2973,4.2984,4.3186,4.327,4.3389,4.3399,4.3446,4.3469,4.3462,4.3511,4.3514,4.3518,4.3534,4.354,4.3479,4.348,4.348,4.348,0,4.2238,4.2329,4.2373,4.2517,4.2589,4.2668,4.2777,4.2838,4.2894,4.297,4.3078,4.3182,4.3299,4.3331,4.3385,4.3459,4.3462,4.3491,4.3509,4.3515,4.3532,4.3539,4.3475,4.3476,4.3477,4.3478,0,0,4.219,4.239,4.2404,4.2472,4.2617,4.2689,4.2772,4.2889,4.2939,4.3039,4.3111,4.3243,4.3272,4.3342,4.3406,4.3452,4.348,4.3475,4.348,4.3473,4.3568,4.3547,4.3552,4.3512,4.3514,4.3515,4.3559,0,4.2219,4.2375,4.2467,4.2584,4.267,4.2756,4.2829,4.2926,4.3,4.3083,4.3164,4.3257,4.3286,4.3329,4.3378,4.3465,4.35,4.3464,4.3581,4.3584,4.355,4.3561,4.3539,4.3575,4.3566,4.3567,4.3568,0,4.2274,4.2375,4.2502,4.264,4.268,4.2744,4.2859,4.2937,4.3049,4.31,4.3179,4.3244,4.3335,4.3345,4.3472,4.3445,4.3499,4.3549,4.3552,4.3567,4.3577,4.3577,4.3589,4.3594,4.358,4.3579,4.3578,0,4.2228,4.2395,4.2494,4.2549,4.2712,4.2755,4.2825,4.2937,4.3002,4.3101,4.3145,4.3252,4.3312,4.3393,4.3486,4.3485,4.3604,4.3622,4.3648,4.3646,4.367,4.3667,4.369,4.3702,4.3702,4.3702,4.3701,0,4.2252,4.2326,4.2476,4.2536,4.2623,4.2727,4.2809,4.2885,4.2984,4.3061,4.314,4.3209,4.3327,4.3411,4.3483,4.3578,4.3603,4.3647,4.3665,4.364,4.3635,4.3677,4.3677,4.3703,4.3703,4.3702,4.3702,0,4.2215,4.2319,4.2432,4.2579,4.2617,4.2674,4.2799,4.2861,4.294,4.3036,4.3064,4.3187,4.329,4.3391,4.3528,4.3577,4.3671,4.3695,4.3634,4.3645,4.3666,4.3663,4.3718,4.3731,4.3732,4.3732,4.3731,0,4.2224,4.2284,4.2438,4.2497,4.2565,4.2657,4.2725,4.2829,4.2896,4.3029,4.3075,4.3184,4.3278,4.3438,4.3539,4.3645,4.3673,4.3685,4.3689,4.3663,4.3675,4.367,4.3678,4.3682,4.3681,4.3681,4.3681,0,4.2229,4.2278,4.2373,4.2487,4.2566,4.266,4.2756,4.2799,4.2922,4.2993,4.3101,4.3173,4.3315,4.3423,4.3541,4.3612,4.3667,4.3679,4.3691,4.3666,4.3629,4.3651,4.3628,4.3677,4.3677,4.3678,4.3678,4.3678,4.2217,4.2276,4.2394,4.2498,4.2582,4.2671,4.2737,4.2825,4.2918,4.3043,4.3099,4.3208,4.3319,4.3484,4.3554,4.364,4.3654,4.367,4.3675,4.3678,4.3673,4.3615,4.3662,4.3662,4.3662,4.3662,4.3663,0,4.2228,4.2309,4.2404,4.2538,4.2619,4.2666,4.2776,4.2841,4.2937,4.3037,4.3128,4.3253,4.3358,4.3468,4.358,4.3628,4.3656,4.3653,4.3651,4.3667,4.3654,4.3633,4.3629,4.3629,4.3629,4.3629,4.3629,4.3629,4.2243,4.2345,4.2408,4.2552,4.2632,4.2742,4.2801,4.2883,4.2964,4.31,4.3189,4.3261,4.3366,4.3486,4.3585,4.3615,4.3652,4.3643,4.368,4.3666,4.3668,4.367,4.3651,4.365,4.365,4.3686,4.3686,4.3687]}]]